GFSGL_925_rhum_084.txt.gz
RH
100 97 92 95 100 100 98 93 89 87 91 92 95 98 98 92 91 87 82 80 76 72 75 77 78 76 86 82 81 71 79 82 87 76 70 63 56 56 58 62 59 57 55
99 99 100 98 99 100 99 94 92 90 91 91 90 93 92 92 86 84 83 82 84 84 72 95 92 85 77 89 90 82 87 83 83 79 67 67 69 62 67 66 66 64 63
95 91 80 91 100 98 95 92 92 91 89 89 89 88 91 88 84 82 78 78 82 82 80 88 85 94 92 93 84 76 79 83 84 83 77 71 76 79 80 76 74 78 76
94 94 84 81 78 74 77 89 89 87 88 86 84 83 82 81 83 84 85 89 88 87 84 85 85 85 86 83 84 84 83 88 88 94 92 89 87 84 86 88 90 88 88
91 94 94 90 88 84 78 78 84 87 81 82 83 82 80 79 79 82 86 88 90 91 91 89 88 86 84 83 88 90 94 96 93 90 88 85 85 85 88 83 89 89 90
97 98 99 100 98 96 94 91 88 86 84 81 80 79 77 78 79 82 83 86 88 90 90 89 85 85 84 84 82 79 78 81 90 90 83 84 84 82 79 79 83 86 91
98 98 99 100 100 100 99 99 99 96 94 94 92 91 90 86 88 84 78 80 85 89 90 92 94 95 92 89 85 84 83 82 83 85 87 89 89 88 88 86 86 88 90
94 95 97 98 100 100 100 100 100 100 100 99 99 96 96 99 100 100 99 96 92 90 91 93 97 98 98 98 98 98 97 95 100 100 100 100 100 99 99 100 99 100 100
92 94 96 98 99 99 99 100 100 100 100 100 100 100 100 100 100 99 100 100 100 100 100 100 100 100 100 100 100 100 100 100 100 100 100 99 98 97 94 96 99 100 100
98 99 98 100 100 100 100 100 100 100 100 100 100 100 100 100 94 90 91 94 100 100 100 100 98 96 93 91 90 97 100 99 98 97 97 98 98 98 97 97 99 97 97
100 100 100 100 99 100 100 99 100 100 99 99 99 97 96 98 98 97 98 99 100 100 100 99 99 99 100 98 99 100 100 100 99 96 96 96 96 95 96 97 98 97 97
100 100 100 100 100 100 98 98 98 99 99 99 99 99 99 99 100 100 99 99 100 99 100 100 100 100 98 98 97 97 97 96 96 96 96 98 97 96 96 96 96 94 94
99 100 100 100 100 100 100 100 100 99 100 100 100 100 100 100 100 100 100 98 98 99 100 100 100 97 94 97 94 92 90 93 95 96 97 97 96 96 96 96 96 96 92
99 100 100 100 100 100 100 100 100 100 99 98 98 99 100 100 98 97 98 100 99 95 91 91 92 91 92 93 90 92 94 94 94 97 98 97 95 94 93 94 95 100 89
98 100 100 99 99 100 100 100 100 99 99 100 100 100 98 100 100 100 94 92 92 91 86 84 86 90 93 94 94 94 94 93 94 95 94 97 98 95 89 86 94 90 90
98 100 100 100 100 100 100 100 100 100 100 100 100 99 99 99 100 100 100 94 84 76 79 91 96 96 100 100 97 95 92 90 92 91 88 93 96 94 88 87 89 86 81
100 100 100 98 100 95 95 98 100 100 100 100 100 100 100 100 100 100 100 93 82 75 90 99 100 100 100 100 100 98 97 81 69 69 76 91 96 94 93 87 92 91 84
93 92 93 93 93 92 93 95 96 100 100 100 100 100 100 100 100 100 96 75 84 89 95 100 100 100 98 94 89 85 78 72 71 71 72 74 74 86 96 94 90 88 86
93 92 90 90 89 88 87 88 89 90 94 95 91 91 96 100 96 85 79 83 91 93 91 91 90 88 87 86 83 80 76 77 76 73 77 79 79 77 80 79 80 80 82
95 93 88 88 87 86 86 87 87 87 87 88 85 83 79 72 78 85 83 82 83 86 85 86 87 87 87 86 82 78 76 74 74 76 79 82 87 86 85 81 77 79 96
94 93 91 89 90 89 87 88 88 88 92 94 97 85 70 74 90 90 89 87 85 85 83 83 87 87 88 86 84 83 83 80 77 75 74 79 82 84 88 83 78 80 85
89 90 89 90 87 84 84 82 81 82 84 86 89 85 76 76 83 88 90 87 83 79 78 75 72 72 79 86 91 86 81 79 77 74 69 69 72 83 86 83 81 88 87
88 88 90 90 88 84 83 85 83 81 81 80 79 81 82 85 88 93 97 98 94 91 90 85 82 81 85 88 92 90 86 84 84 82 79 76 78 81 85 86 92 94 88
84 86 89 91 88 90 91 93 93 92 91 89 88 90 91 91 89 91 97 99 99 98 95 93 94 94 98 99 96 94 94 93 94 91 86 82 85 88 91 95 99 96 90
84 85 86 88 88 89 90 93 95 96 97 97 98 97 99 98 96 95 91 86 87 94 96 99 100 100 99 95 96 99 100 100 98 96 91 88 89 89 97 99 100 95 94
81 82 82 83 87 90 90 90 90 90 91 95 98 100 100 100 97 93 89 84 87 92 99 100 100 100 98 96 100 100 100 96 94 93 92 91 93 100 99 99 99 100 100

GFSGL_925_rhum_090.txt.gz
RH
86 84 86 89 90 98 99 100 100 100 100 98 96 93 86 76 72 74 80 83 87 89 79 80 70 69 76 71 80 63 69 74 76 69 66 63 76 80 72 66 56 59 57
88 87 89 94 89 91 91 98 100 100 100 100 97 100 99 97 92 93 88 80 79 89 71 86 78 76 74 72 77 80 86 93 92 89 79 75 79 71 64 75 71 68 71
90 83 91 92 90 92 92 92 96 99 100 100 100 100 100 100 100 95 91 79 73 75 85 94 84 89 84 79 82 89 88 88 93 94 83 75 70 66 68 70 74 77 74
90 80 86 90 96 96 96 95 93 89 90 93 99 99 99 99 100 99 99 96 92 80 82 87 85 84 73 78 89 90 97 94 90 92 93 85 79 74 73 72 69 66 71
84 79 83 92 91 96 97 98 100 99 92 86 88 90 92 97 99 99 100 100 100 94 88 81 80 89 80 89 92 95 93 91 89 84 84 83 81 76 75 73 75 77 78
71 80 78 79 77 80 84 86 93 97 95 94 93 89 88 89 90 92 90 94 97 96 96 96 96 94 91 91 89 87 82 83 85 92 90 91 92 92 85 83 84 85 89
98 100 100 100 100 100 96 93 90 88 89 92 92 90 95 99 95 94 93 97 98 97 96 94 92 90 95 95 95 96 97 99 100 100 100 100 100 100 100 99 99 99 99
97 99 100 100 100 100 100 100 100 100 100 100 100 100 100 100 100 98 93 95 99 100 100 100 100 100 100 100 100 100 100 100 100 100 100 100 100 98 100 100 100 100 100
98 100 100 100 100 100 100 100 100 100 100 100 100 100 99 99 96 96 98 100 100 100 100 99 100 100 100 99 99 100 100 100 100 100 100 98 98 99 94 98 100 99 100
100 100 100 100 100 100 100 100 100 100 100 100 100 100 100 100 100 100 100 100 100 100 99 98 95 95 91 89 96 100 100 100 97 100 97 96 89 82 83 91 100 100 100
98 98 100 99 99 100 100 100 100 100 100 100 99 100 99 99 100 100 100 100 100 99 100 99 99 98 98 100 100 100 100 99 98 93 92 96 95 94 97 98 99 100 99
96 96 94 96 97 98 98 99 99 100 100 100 100 100 100 100 100 99 98 99 100 99 100 100 100 100 99 99 98 96 92 90 97 100 100 100 100 100 100 100 98 99 99
98 95 90 90 91 94 94 95 95 93 93 94 95 98 100 100 100 100 100 100 100 99 100 100 100 100 100 99 100 100 99 97 97 98 98 99 100 100 95 96 98 86 74
95 88 92 94 93 90 90 97 95 92 91 89 90 93 96 100 100 100 100 100 100 100 100 100 100 100 100 100 100 100 100 100 98 96 94 92 83 74 70 67 63 65 60
96 95 93 87 88 95 100 98 99 100 99 97 99 98 98 100 100 100 100 100 100 100 100 97 96 93 92 92 93 92 91 88 87 86 80 72 64 57 52 57 56 57 54
89 91 95 90 86 85 89 98 100 100 100 100 100 100 100 100 100 100 100 98 97 96 96 94 94 93 89 87 85 80 76 73 70 68 70 64 61 59 55 57 58 55 49
93 89 88 86 86 86 85 84 90 100 100 100 100 100 100 100 100 100 100 97 97 93 92 92 92 89 81 73 70 68 70 74 72 71 71 73 71 66 63 60 62 59 55
98 96 94 95 95 95 95 94 92 91 92 98 100 100 100 100 100 100 94 87 86 86 86 86 84 78 69 67 68 70 74 77 77 73 78 80 80 70 68 63 62 67 58
94 98 100 100 100 98 96 94 92 91 90 90 91 94 98 100 100 99 96 90 83 76 72 73 77 74 73 75 84 85 87 86 86 84 82 80 84 74 70 68 69 73 67
99 100 97 95 94 92 91 88 87 85 84 84 86 88 80 84 85 88 91 88 82 78 75 74 77 82 84 82 86 87 79 81 79 77 84 86 88 79 75 74 72 69 61
92 93 92 89 88 87 85 81 79 77 74 75 85 97 91 77 79 81 82 86 84 83 86 81 85 88 86 86 83 86 86 87 88 86 86 84 90 84 78 76 74 70 64
84 83 83 83 83 84 77 76 76 74 73 75 79 87 89 85 81 82 87 94 96 91 88 90 87 88 93 92 92 92 90 93 94 95 92 91 87 82 82 78 77 75 71
82 82 78 80 80 83 81 78 81 80 82 84 82 85 86 90 91 90 95 99 97 100 100 99 97 96 100 100 100 100 96 99 100 100 100 98 89 86 88 83 78 78 75
83 83 77 84 87 83 85 86 87 87 83 86 88 88 90 93 95 98 100 100 100 100 100 100 100 100 100 100 100 100 100 100 100 100 100 100 98 93 93 86 81 82 85
87 86 86 86 88 87 86 85 87 88 88 89 89 90 88 89 90 97 100 100 100 100 100 100 100 100 100 100 100 100 100 92 99 89 100 100 100 100 99 96 92 90 85
85 85 84 84 85 85 85 85 86 87 88 90 92 94 95 93 94 99 100 100 100 100 100 100 100 100 100 100 100 100 92 91 98 87 90 100 100 100 98 97 94 92 86

GFSGL_925_rhum_093.txt.gz
RH
66 74 78 78 80 89 94 99 99 100 100 100 99 100 100 100 100 100 96 92 91 95 83 80 82 75 69 70 71 68 69 71 67 61 59 61 59 74 74 74 66 64 61
68 77 78 77 85 86 93 99 100 100 100 100 100 98 100 96 94 91 91 92 80 76 79 91 84 78 70 61 83 74 77 85 85 86 75 75 75 70 66 73 74 70 69
76 80 77 78 82 86 92 99 100 100 100 100 100 100 97 92 86 80 73 78 87 88 82 75 68 74 79 83 89 74 67 76 84 87 82 77 76 72 74 76 78 76 71
79 80 74 76 79 82 83 93 95 99 100 100 99 99 100 96 93 90 91 93 93 93 86 76 63 77 75 76 89 69 69 81 82 82 88 88 87 82 78 74 71 71 75
85 77 76 75 78 82 84 84 84 90 96 99 100 100 100 99 100 98 98 99 99 89 78 75 74 86 86 85 91 85 85 88 89 90 91 91 84 81 80 77 78 79 79
81 83 78 75 83 86 86 89 92 90 88 89 89 91 99 100 100 100 100 100 100 98 98 87 80 76 76 73 75 78 82 88 95 99 99 98 92 91 91 96 99 99 97
99 99 99 99 99 100 95 94 96 95 93 93 95 100 100 100 100 100 100 100 100 100 100 100 99 99 97 100 100 100 100 100 100 100 100 100 99 100 100 98 100 100 100
99 100 100 100 100 100 100 100 100 100 100 100 100 100 100 100 97 93 94 100 100 99 100 100 100 100 100 100 100 100 100 100 99 99 99 100 99 100 98 99 100 100 100
99 100 100 100 100 100 100 100 100 100 100 100 100 100 100 100 97 98 97 100 100 100 100 100 100 99 100 99 100 100 100 99 99 99 97 98 97 90 94 100 99 99 100
100 100 100 100 100 100 100 100 100 100 100 100 100 100 100 100 100 100 100 100 100 100 99 98 98 96 92 94 100 100 100 100 100 99 97 91 83 81 83 97 100 100 100
100 100 100 100 100 100 100 99 99 99 99 98 97 98 98 100 100 100 100 100 98 97 97 97 97 98 100 100 98 100 98 98 95 94 99 99 98 98 98 96 100 99 99
99 100 100 100 100 100 100 98 96 99 98 100 100 100 98 99 100 100 100 100 100 99 100 100 100 100 100 99 96 97 95 96 97 96 97 99 100 100 99 95 85 82 79
97 99 100 100 97 97 99 100 97 96 95 97 98 99 100 100 100 99 100 100 100 100 99 100 100 100 100 100 98 96 98 94 94 95 97 95 95 92 82 83 84 77 67
98 98 98 98 98 99 98 98 100 98 95 97 94 96 98 100 100 99 100 100 100 98 99 95 96 96 98 96 94 93 92 91 92 92 91 84 75 69 62 62 60 55 58
99 97 98 96 96 98 100 100 100 100 100 99 100 100 97 99 99 100 99 98 97 97 95 93 94 93 93 89 87 86 84 80 80 81 75 68 61 57 51 54 55 56 53
98 98 97 96 97 98 97 100 100 100 100 100 100 99 99 99 100 100 100 96 93 93 91 93 94 90 83 81 80 77 75 73 69 68 70 66 64 62 58 57 58 58 51
93 90 89 93 96 97 100 98 96 100 99 100 100 100 100 100 99 97 94 91 94 89 89 91 89 84 73 68 67 66 70 72 71 72 72 74 72 67 65 60 61 62 57
94 95 95 96 96 95 93 94 94 92 94 98 100 99 100 100 100 98 94 84 82 81 80 80 77 72 65 67 68 72 75 78 77 73 78 79 80 68 67 63 60 68 60
94 96 96 95 93 93 92 90 89 88 88 90 92 90 94 93 92 92 90 84 76 70 66 68 72 70 70 73 83 82 84 82 82 81 81 79 84 74 69 67 67 68 64
90 96 93 90 89 88 87 86 85 83 82 82 85 88 78 78 79 82 84 81 76 72 70 70 74 78 80 78 83 83 77 79 78 76 81 84 86 79 73 71 70 67 60
79 79 81 78 77 79 77 73 72 72 71 74 82 89 83 74 75 77 79 82 80 80 82 77 82 84 82 81 81 84 84 85 84 84 84 83 86 79 75 72 70 67 63
72 70 69 70 73 75 69 70 71 69 68 71 76 84 83 80 76 78 84 90 91 88 85 88 84 85 90 90 89 89 86 88 91 94 92 89 83 79 79 75 72 72 69
72 72 67 70 69 71 74 72 75 74 75 77 76 79 80 85 86 86 90 94 92 96 97 95 93 92 97 98 96 93 92 97 99 100 100 96 88 85 85 81 75 72 73
74 74 67 73 79 75 78 79 83 76 75 79 82 81 82 86 88 90 94 98 97 98 100 100 100 99 100 100 100 99 100 100 100 100 100 100 94 90 91 84 80 80 77
78 76 75 75 79 79 77 76 78 80 80 81 83 83 80 82 83 90 94 98 98 99 98 100 100 100 100 100 100 100 100 100 100 100 100 100 100 97 91 87 86 83 81
77 78 77 78 79 79 79 79 79 80 81 82 84 85 86 85 84 91 92 92 96 97 99 98 100 100 100 100 100 100 100 100 100 100 100 100 100 96 94 95 93 88 82

GFSGL_925_rhum_096.txt.gz
RH
67 69 72 69 75 88 91 97 100 99 99 100 100 100 100 100 100 100 100 99 95 94 84 73 73 69 67 60 47 59 65 63 75 61 57 58 67 69 70 69 65 62 62
69 72 77 78 84 87 93 99 99 98 99 100 100 100 100 100 100 99 100 100 97 90 83 81 81 75 76 76 73 67 68 66 64 75 67 60 61 59 65 70 73 72 69
75 77 81 85 84 84 94 98 100 99 100 100 100 99 99 99 100 100 98 96 94 93 92 87 82 86 84 71 70 73 75 73 70 67 76 72 72 73 73 73 73 75 75
80 81 84 84 85 78 88 98 99 99 100 100 100 98 96 95 97 97 98 97 95 92 84 86 86 86 82 79 82 78 84 82 76 77 88 82 76 70 77 82 83 82 79
84 82 82 82 84 82 92 92 99 99 99 99 100 98 96 96 95 95 93 91 89 88 96 94 90 81 71 73 81 83 90 91 91 93 90 82 80 84 88 88 92 92 96
88 84 83 81 83 85 85 90 96 98 99 100 100 100 100 100 100 98 91 96 98 100 99 92 90 75 69 79 80 86 91 92 95 93 90 90 91 100 99 100 99 99 99
100 100 97 98 95 98 95 92 94 100 99 100 100 100 100 100 100 100 100 100 100 100 100 100 100 91 86 84 89 89 93 96 98 99 100 100 100 100 100 100 100 99 100
100 100 100 100 100 100 100 100 100 100 100 100 100 100 100 100 100 100 100 100 100 100 100 100 100 100 100 100 100 100 100 100 100 100 100 99 99 100 98 99 99 99 100
100 100 100 100 100 100 100 100 100 100 100 100 100 100 100 100 100 100 100 100 100 100 100 100 100 100 100 100 100 100 100 99 99 100 99 98 97 94 96 99 98 100 100
100 100 100 100 100 100 100 100 100 99 99 99 100 100 100 100 100 100 100 100 100 100 100 99 98 99 99 100 100 100 100 100 99 98 97 95 90 86 86 94 98 98 99
100 100 100 100 100 100 100 100 100 100 100 99 100 100 100 100 100 100 100 100 100 100 100 100 100 99 100 100 100 98 96 97 98 99 100 99 95 79 73 73 93 94 99
100 99 99 98 100 100 100 100 100 100 100 100 100 100 100 100 98 98 96 96 97 96 100 100 100 99 98 99 98 100 99 99 98 98 98 97 93 88 85 83 81 64 52
98 98 98 97 96 97 95 99 99 100 99 99 98 99 99 100 99 97 96 96 98 100 100 99 98 98 95 95 96 96 95 94 92 92 88 85 79 72 68 70 66 73 61
98 98 97 98 98 97 98 96 96 98 98 98 97 98 98 98 98 100 100 100 98 95 96 95 96 92 90 93 94 90 87 86 89 87 77 68 63 56 56 58 57 56 57
98 98 97 98 96 97 99 98 97 98 97 97 98 100 99 100 99 100 100 100 96 94 94 95 95 94 95 90 82 78 75 74 75 72 69 65 62 58 57 58 61 56 51
97 98 98 99 96 96 96 98 99 98 96 99 100 100 100 100 100 100 99 92 91 86 90 96 94 86 82 77 80 78 76 76 76 75 77 75 71 67 66 64 66 66 61
98 98 97 98 98 100 97 96 97 97 99 96 95 97 100 100 100 96 91 95 94 84 94 94 84 75 72 74 75 78 83 78 77 80 84 80 79 74 70 68 70 68 64
97 94 97 98 98 98 98 97 98 97 98 100 97 96 96 98 98 98 96 88 84 82 82 80 77 74 78 83 83 86 84 84 86 87 81 83 82 78 70 69 70 69 66
95 98 95 94 93 95 94 94 94 94 94 93 95 93 89 89 92 93 88 82 78 75 74 78 80 83 86 81 92 94 81 84 83 85 90 86 80 87 77 74 75 70 65
80 83 83 85 87 85 83 84 86 86 87 90 93 89 85 83 88 88 87 86 86 86 82 86 91 84 82 90 83 78 93 82 83 91 86 87 76 87 77 77 76 72 70
77 75 77 79 81 74 74 73 75 79 82 84 80 86 81 84 88 91 94 94 95 92 92 88 88 89 90 87 97 91 83 95 87 92 93 89 86 92 85 82 79 78 73
76 70 71 73 76 75 77 81 77 76 78 87 85 79 87 89 88 93 91 89 87 90 100 97 96 88 82 94 92 95 98 93 94 91 90 94 89 98 79 88 88 77 82
79 73 72 80 87 88 81 73 87 90 87 87 89 89 89 83 84 97 91 99 99 91 81 98 98 99 96 100 99 100 96 92 100 100 87 100 94 98 88 85 86 88 89
83 79 82 90 80 81 87 94 92 81 86 91 92 91 92 91 96 96 90 83 96 98 86 100 93 85 85 92 99 100 97 87 87 97 92 100 95 100 84 96 91 92 86
83 82 86 88 84 86 90 84 86 87 93 88 91 94 92 95 96 98 93 98 87 100 100 100 90 98 99 100 100 88 83 66 80 84 81 89 97 96 100 100 97 83 96
83 83 87 87 88 88 89 91 94 92 94 90 94 93 92 92 98 93 95 100 89 90 96 98 100 90 85 100 100 95 90 83 92 76 71 95 100 100 96 89 95 92 97

GFSGL_925_rhum_099.txt.gz
RH
75 66 71 74 76 79 79 75 86 96 97 100 99 100 100 100 100 100 100 100 100 100 100 98 96 83 72 63 63 64 61 57 68 64 62 58 61 67 66 68 67 65 66
79 73 75 77 81 79 78 83 95 96 95 99 100 100 99 100 100 100 100 100 100 100 100 100 96 84 83 66 59 48 64 65 62 64 64 62 58 60 59 62 67 66 65
82 79 79 80 82 88 91 87 94 99 100 99 100 100 99 100 100 100 99 99 100 100 99 96 93 88 81 68 63 62 60 62 66 66 60 56 58 62 64 67 62 59 68
87 85 84 84 87 89 89 88 95 100 100 100 100 100 100 99 100 100 100 100 100 100 99 99 96 90 77 77 77 73 72 63 67 72 71 67 64 62 70 70 70 76 86
99 88 88 84 84 83 81 92 99 100 100 99 100 100 100 100 100 100 100 100 100 100 100 99 99 98 92 89 89 81 73 74 81 87 89 86 84 84 80 78 88 95 100
100 100 95 90 87 87 88 96 100 100 100 100 100 100 100 100 99 97 94 100 100 98 98 89 82 92 94 94 96 86 83 83 88 92 93 92 90 93 97 98 99 100 100
100 100 100 100 100 100 100 99 99 100 100 100 100 100 100 100 100 100 98 94 92 94 92 93 99 100 100 98 90 90 92 96 96 96 99 100 100 100 99 99 100 100 100
100 100 100 100 99 100 100 100 100 100 100 100 100 100 100 100 100 100 100 100 100 100 100 100 100 100 100 97 97 100 100 100 100 100 100 100 100 100 100 99 100 100 100
100 100 100 100 100 100 100 100 100 100 100 100 100 100 99 100 100 100 100 100 100 100 100 100 100 100 100 100 100 100 100 100 100 100 99 99 98 98 99 100 99 100 100
100 100 100 100 100 100 100 99 100 99 100 100 100 100 100 100 100 100 100 100 99 100 100 100 100 100 100 100 99 100 98 99 100 98 98 96 94 95 94 94 98 98 99
98 100 98 98 100 100 100 100 100 100 100 100 100 100 100 100 100 100 100 100 100 100 100 100 100 100 100 100 99 97 98 99 98 96 96 90 84 75 68 69 75 81 88
97 98 97 97 98 100 100 100 100 99 100 100 100 100 100 100 100 100 98 96 98 100 100 100 100 100 100 99 97 99 96 95 96 95 95 90 80 81 80 77 68 54 45
96 97 97 96 97 96 99 100 100 98 97 98 98 98 100 100 99 100 100 99 97 99 100 99 98 98 97 98 98 98 98 93 90 85 72 68 63 64 62 77 78 61 50
98 97 97 97 97 96 97 98 97 97 98 97 97 98 98 98 97 97 98 98 97 97 96 96 96 94 91 88 86 85 85 82 76 65 62 60 55 54 57 58 56 60 50
98 98 97 97 96 97 98 97 98 98 96 97 98 97 97 99 99 96 96 97 96 94 96 94 97 90 78 75 74 74 74 71 70 69 66 61 63 61 61 61 60 54 48
99 99 98 97 96 96 96 97 96 96 96 96 96 96 97 98 99 98 96 96 95 86 88 90 91 90 93 88 84 83 79 78 77 76 76 76 72 68 70 64 62 62 59
99 100 100 100 99 98 97 96 96 97 95 95 96 97 97 96 96 96 96 95 94 82 90 91 92 90 94 94 87 88 93 85 79 77 80 81 73 68 72 74 67 62 63
96 92 96 98 95 97 99 98 98 100 99 99 98 96 96 96 97 96 95 92 93 95 98 99 100 99 99 94 90 84 88 89 89 80 75 84 80 75 75 77 71 68 68
85 87 90 87 88 93 91 79 77 80 89 91 92 89 86 99 100 98 80 88 93 95 93 93 94 91 86 94 91 84 82 88 87 84 76 79 85 76 76 78 73 71 71
74 74 76 77 77 76 82 81 74 67 84 87 89 92 85 72 85 90 92 95 97 97 93 91 90 96 98 84 86 89 80 81 88 86 84 82 92 87 82 83 83 78 75
73 74 73 69 79 83 77 84 87 77 70 80 93 92 90 87 89 89 91 94 97 99 92 85 87 88 92 96 94 88 88 86 82 84 86 89 95 88 79 89 84 81 86
75 75 77 93 87 78 88 89 83 90 92 89 87 82 85 92 94 97 99 90 82 96 100 95 88 87 94 94 98 94 89 86 82 80 83 88 96 88 79 83 83 90 81
82 88 80 84 85 91 71 75 88 96 94 92 89 84 77 78 82 82 87 100 95 83 85 90 93 91 96 94 93 94 90 88 85 81 77 88 97 96 83 93 94 94 87
84 94 93 86 90 90 93 94 92 92 96 98 98 99 99 98 94 87 80 79 97 90 90 87 85 79 82 86 92 91 83 73 68 65 70 82 93 90 97 100 96 90 84
76 84 89 94 92 93 95 97 90 90 94 93 93 89 95 97 95 92 87 82 80 91 94 100 92 86 86 89 93 94 87 77 58 58 61 79 97 100 100 100 90 80 83
90 86 81 85 90 79 92 88 93 92 85 97 97 96 98 99 100 100 100 94 81 86 99 100 100 92 92 95 100 98 89 79 65 58 62 82 93 99 94 85 91 90 88